Theta_e
309 308 310 309 307 309 308 308 310 309 309 311 310 309 309 303 303 302 302 301 301 302 302 303 304 306 307 309 311 315 318 319 321 322 322 322 321 319 319 316 315 316 317 317
307 308 308 307 307 308 307 308 308 307 308 309 309 309 307 303 302 302 301 300 301 301 302 303 303 305 306 306 307 308 308 309 309 308 308 309 309 310 310 310 310 310 310 310
308 311 306 307 306 308 306 308 307 310 309 308 308 309 306 302 301 301 300 300 300 301 302 302 303 304 303 303 303 304 304 305 305 305 305 306 305 305 306 305 305 304 304 304
307 308 309 307 308 306 308 306 307 309 311 313 307 313 308 303 302 300 299 299 299 300 301 301 301 301 302 303 303 304 304 304 303 303 303 304 303 304 302 302 302 302 302 302
313 308 309 310 310 307 310 306 307 309 309 308 308 309 308 304 304 301 298 298 299 299 300 300 299 300 301 301 302 301 301 301 301 301 300 300 300 300 298 298 297 296 296 296
310 309 308 310 308 308 304 306 306 304 305 310 309 310 309 307 306 301 299 299 299 299 298 298 299 300 300 299 300 300 300 300 299 298 298 297 297 296 296 295 295 294 292 292
310 309 307 307 307 306 306 309 312 312 312 314 306 307 309 306 303 303 300 299 299 299 298 298 299 299 300 298 299 299 298 299 297 297 297 297 296 295 295 294 293 291 291 291
313 315 308 305 308 309 306 309 313 314 311 309 306 310 310 302 301 301 301 301 300 299 298 298 299 299 299 298 300 298 297 297 296 294 294 294 294 294 294 293 291 291 291 290
312 314 306 306 305 307 308 309 307 306 294 306 309 307 306 301 299 298 299 300 299 299 298 299 298 300 298 298 298 296 296 294 293 293 293 293 293 292 291 291 290 290 289 289
310 313 308 306 307 306 307 306 311 308 311 310 309 309 310 305 302 297 296 298 299 300 298 299 300 300 299 298 296 295 293 293 292 292 291 291 291 290 290 289 289 289 288 288
308 311 310 307 307 308 308 309 307 308 308 309 308 308 303 305 302 299 297 299 300 300 299 300 301 300 299 297 296 294 293 293 292 290 290 290 290 289 289 289 289 288 288 287
308 310 309 309 306 304 306 307 307 311 309 303 306 310 303 302 301 300 299 301 301 302 301 301 301 300 300 299 298 295 292 292 290 290 290 290 290 289 289 289 288 288 287 287
309 310 308 310 308 305 307 305 305 305 305 304 309 309 302 300 300 300 301 302 302 302 301 300 300 300 301 300 298 296 293 291 290 289 289 290 289 289 289 288 288 288 287 287
310 308 312 319 313 308 308 306 305 308 305 308 309 307 305 302 301 299 301 303 303 302 302 302 301 301 301 299 298 297 294 291 289 289 289 289 289 289 289 288 288 288 287 287
310 315 307 306 305 307 307 306 305 307 309 311 311 308 304 305 303 303 305 303 302 302 302 301 300 299 300 299 298 297 294 290 289 289 289 289 289 289 289 288 288 288 287 287
305 312 307 307 304 305 305 305 305 306 307 308 306 306 303 305 304 303 304 302 302 301 300 299 297 298 298 299 298 297 295 292 289 289 290 290 289 289 289 288 288 288 287 287
307 306 309 314 301 304 310 305 304 303 301 306 306 306 296 299 299 302 303 303 303 302 300 297 297 295 295 296 298 296 295 292 291 291 290 290 289 289 288 288 288 288 288 287
306 307 309 300 302 310 302 292 300 303 302 297 295 293 299 300 302 302 301 301 300 298 297 295 294 294 294 296 297 296 293 292 292 291 290 289 289 288 288 288 288 288 287 287
302 304 299 302 304 304 296 292 298 302 301 297 300 298 295 294 295 295 296 296 296 294 293 293 294 294 294 294 294 293 292 291 290 290 290 290 289 288 288 288 288 288 287 286
299 303 309 300 305 308 301 292 292 295 297 289 299 296 291 292 290 291 295 294 292 292 292 293 293 293 292 291 291 291 291 290 290 289 289 289 288 288 288 288 287 287 287 286
299 299 308 302 304 302 296 290 292 300 301 294 294 294 291 290 293 293 292 292 292 292 291 292 292 292 291 291 290 290 290 289 289 289 289 288 288 288 287 287 287 287 286 286
299 301 301 300 301 304 291 290 296 296 292 295 294 294 294 294 294 292 292 292 292 292 292 292 292 292 291 290 290 290 290 289 289 289 288 288 287 287 287 286 286 286 285 285
297 299 301 300 301 291 292 294 295 295 295 294 295 295 294 295 293 292 292 292 292 291 291 291 292 291 291 290 290 290 290 290 289 289 288 288 287 286 286 286 285 285 284 284
290 289 292 293 291 290 291 293 294 294 294 294 294 294 293 292 292 292 291 291 291 291 291 291 291 290 290 290 290 290 290 290 289 288 288 287 286 285 285 284 284 284 283 281
292 290 289 289 289 291 291 293 294 294 293 293 293 293 292 292 292 291 291 291 291 291 291 291 291 291 290 290 290 290 290 289 288 288 287 286 285 284 284 283 283 283 282 279
289 290 291 291 291 292 293 294 294 294 293 293 292 291 291 291 291 291 291 291 291 291 291 291 291 290 290 290 290 290 289 289 288 287 286 285 284 283 282 282 282 281 278 278
Wind_Speed
3 3 8 12 9 3 5 4 5 3 3 3 6 6 6 4 7 7 8 8 9 11 14 15 16 17 18 17 17 17 18 20 17 16 14 13 10 9 6 3 3 3 3 4
4 7 8 5 5 4 4 4 6 4 3 3 5 9 3 1 2 5 11 11 12 15 16 18 20 22 23 24 24 23 23 22 21 20 20 19 17 15 12 11 8 7 3 2
8 4 10 8 4 6 5 7 5 6 1 2 1 6 4 1 4 8 10 12 14 17 18 19 21 24 26 28 29 29 28 26 24 23 21 19 18 17 14 12 11 10 8 7
6 3 6 4 5 8 6 8 7 5 4 4 1 4 4 4 4 7 12 15 16 16 18 19 21 24 25 26 24 22 21 20 20 18 16 14 14 13 14 12 12 11 10 10
7 8 6 5 8 8 6 6 7 4 4 2 3 1 6 4 7 9 15 17 18 18 18 21 21 22 21 20 19 18 17 16 16 13 12 12 13 15 14 13 11 12 12 11
4 2 6 8 3 6 9 7 6 4 3 2 8 7 4 6 7 6 17 23 22 21 20 20 21 19 17 15 15 14 12 13 11 10 12 13 14 14 11 11 9 9 9 10
2 5 4 6 5 3 2 6 1 1 1 6 2 3 7 5 5 5 21 32 28 24 23 22 21 19 16 12 11 9 9 8 7 6 8 8 9 8 7 6 6 6 8 9
7 5 11 7 7 8 7 7 5 7 4 3 2 6 5 2 2 3 14 30 29 28 25 22 21 18 15 12 11 7 4 4 6 7 7 8 7 6 5 6 6 8 9 11
7 6 1 2 4 6 7 6 4 7 2 2 4 5 3 2 2 4 19 30 33 31 29 26 22 18 15 12 10 8 5 6 7 7 6 5 4 4 4 5 6 8 10 11
6 2 1 3 4 3 4 7 3 2 2 5 3 4 4 5 8 6 12 28 35 32 30 27 23 19 16 13 11 9 8 7 7 6 5 3 2 3 4 6 7 8 10 11
6 4 1 4 7 10 4 3 2 3 3 5 2 5 6 7 9 14 19 31 36 34 31 29 24 21 17 15 13 11 11 10 10 9 6 3 1 2 4 6 9 10 13 14
10 5 4 7 2 2 2 7 7 5 5 2 1 6 1 4 10 20 24 35 35 33 32 30 26 23 21 19 16 14 14 14 13 11 8 6 4 5 6 9 11 13 15 17
10 5 3 4 2 1 5 5 4 4 3 8 5 5 0 2 5 18 24 31 32 30 29 28 27 27 27 25 21 19 16 16 16 14 11 9 8 8 9 11 13 16 18 20
20 5 9 16 5 7 7 7 6 7 4 6 10 4 6 6 8 13 20 28 30 29 28 28 28 27 29 28 25 20 19 20 19 17 14 12 11 12 12 13 15 18 20 22
7 12 5 1 2 5 6 9 12 13 13 9 9 13 9 12 12 23 27 27 27 27 26 24 22 26 27 27 27 23 22 22 21 20 18 16 16 16 15 15 17 19 21 24
1 5 4 5 0 1 3 10 11 12 10 14 4 10 7 16 13 14 19 27 29 28 24 19 18 17 18 23 27 26 23 23 24 23 20 21 21 20 18 18 19 21 24 26
8 6 7 7 4 4 5 10 11 5 5 11 11 12 5 5 9 17 19 24 33 30 19 15 13 14 17 22 24 25 21 22 24 25 27 27 26 24 22 20 20 24 27 29
6 6 3 4 3 8 3 0 5 10 5 3 2 4 12 8 19 16 16 19 20 18 15 14 15 18 19 20 19 19 20 23 26 28 30 30 28 26 24 22 23 26 29 30
3 4 3 5 5 5 3 5 7 8 8 9 9 5 10 9 9 9 15 14 13 12 12 14 16 18 16 16 16 19 21 23 24 25 28 29 28 27 26 24 25 27 30 31
1 2 5 4 5 9 2 1 6 4 4 8 17 8 12 16 3 4 13 13 10 10 11 14 17 17 17 15 16 19 22 23 25 24 24 26 28 29 29 27 26 27 31 32
3 1 11 5 4 4 5 7 10 5 5 9 21 13 23 5 8 10 10 8 6 6 8 14 19 19 15 14 18 21 22 25 22 23 26 29 30 31 30 28 27 29 31 33
6 7 4 3 2 8 12 6 9 5 9 15 15 15 16 15 12 10 7 7 8 10 13 18 22 22 17 18 22 25 25 23 23 24 27 31 32 31 30 29 28 30 31 33
4 6 5 7 5 0 28 4 12 18 16 14 15 15 15 17 18 15 11 9 13 15 17 18 27 24 17 20 23 28 29 28 28 27 28 31 31 30 30 30 30 30 32 33
4 3 2 3 3 3 22 7 18 14 13 14 12 13 18 21 21 18 14 13 13 13 14 16 25 29 25 24 26 28 31 31 31 29 29 30 30 29 29 30 29 31 31 30
4 7 6 2 2 2 9 27 15 16 14 14 15 14 15 16 20 20 21 16 15 16 15 18 19 28 32 26 27 27 29 30 29 28 28 28 28 28 28 29 30 31 29 29
8 6 5 4 15 9 10 21 21 21 21 19 15 15 14 15 17 17 20 19 19 18 17 20 21 22 25 25 24 25 26 27 28 29 29 28 27 28 29 30 30 28 27 27
Wind_Direction
141 123 210 196 196 129 140 170 218 215 234 165 223 251 283 108 124 145 150 138 117 101 94 98 99 99 99 103 102 101 97 93 94 98 103 113 115 102 111 70 47 40 346 311
60 228 211 139 140 153 141 161 246 293 217 155 267 257 242 85 170 187 166 149 133 119 116 110 107 107 106 103 101 101 98 99 99 97 92 92 92 94 86 81 75 78 64 4
174 213 156 141 148 172 206 193 198 215 42 199 338 276 214 67 124 153 165 157 149 140 130 118 113 107 104 101 100 100 97 93 89 85 86 89 92 94 95 89 80 67 57 49
228 226 161 164 188 167 216 199 173 167 131 232 145 274 280 179 179 187 176 172 163 154 141 132 123 117 110 104 97 91 91 90 86 82 83 86 86 81 80 73 71 68 62 54
230 171 179 184 204 161 234 134 160 140 153 120 222 145 259 155 227 200 197 185 173 164 157 143 132 125 115 106 102 91 81 79 82 81 76 63 60 78 80 75 63 53 44 41
237 194 165 195 126 164 150 81 56 58 97 253 218 183 245 203 208 159 180 189 182 175 166 152 141 133 124 116 106 94 73 66 76 77 75 66 65 71 68 60 48 45 40 36
181 213 190 152 97 67 142 115 59 341 287 233 44 164 250 223 201 185 184 185 181 179 176 163 153 147 138 129 111 100 88 71 79 85 90 83 81 77 63 61 53 52 42 30
172 267 170 185 178 175 189 167 167 198 201 245 47 229 251 77 113 225 193 184 179 184 181 173 166 158 154 155 141 138 120 121 132 137 124 109 98 85 69 51 39 23 17 13
175 263 86 123 145 147 185 197 158 106 43 66 215 283 263 110 91 146 175 186 186 188 185 180 174 172 176 171 164 171 180 175 163 154 132 114 92 66 48 36 18 6 1 356
204 183 265 153 105 38 179 153 93 5 196 248 247 251 230 215 206 180 181 190 191 190 190 187 184 185 189 191 190 193 196 196 189 185 171 158 114 59 21 9 352 348 342 340
151 149 201 133 209 177 155 174 69 133 153 187 231 247 209 195 177 192 199 194 194 194 195 195 195 199 200 205 208 209 209 215 212 201 198 200 259 327 332 337 337 334 333 331
189 139 167 203 272 297 195 188 165 166 211 250 167 247 222 249 201 189 193 196 196 197 199 203 205 209 214 219 221 223 217 221 216 217 217 229 262 294 317 324 325 326 326 326
180 194 102 355 324 307 219 194 150 103 82 192 170 246 146 188 176 200 193 195 198 201 206 209 213 218 226 227 226 226 223 224 224 223 227 244 262 279 296 310 319 322 323 324
171 167 201 223 187 142 188 187 181 168 171 182 227 208 213 193 191 190 197 201 200 203 207 213 217 226 235 233 230 232 228 225 225 227 236 249 261 277 291 307 317 319 319 319
157 215 175 212 242 160 174 172 183 202 208 201 228 228 196 196 196 199 202 203 199 204 206 210 227 237 238 236 236 235 230 227 228 232 241 251 262 273 284 299 307 313 314 315
16 205 140 196 174 314 203 221 191 201 215 234 213 248 182 210 198 190 209 204 200 205 208 236 236 235 240 243 242 237 234 231 231 237 248 255 262 269 276 286 296 307 313 313
166 145 157 205 158 134 268 219 190 176 195 193 212 232 161 181 186 194 198 204 213 217 240 238 233 243 247 249 245 235 234 233 237 244 248 254 260 265 267 278 294 302 307 309
159 157 166 134 156 218 216 189 197 199 197 187 93 191 183 196 210 221 231 226 226 236 230 232 247 246 243 243 234 230 230 236 242 247 252 256 260 263 265 277 290 295 303 305
191 132 134 157 216 332 146 204 147 165 245 191 210 195 177 153 151 214 212 207 210 216 238 247 242 237 229 225 226 229 236 242 249 258 262 261 262 262 262 272 281 292 302 302
269 236 185 157 187 205 248 192 152 110 280 210 197 192 157 147 145 241 201 190 210 227 237 241 231 227 224 220 231 242 248 251 265 268 271 267 261 260 261 268 278 290 301 299
153 178 209 179 205 272 216 179 150 136 249 180 203 193 160 178 199 149 168 189 218 246 262 246 229 232 224 246 252 252 256 263 264 266 266 264 261 259 262 268 277 292 299 297
167 160 195 112 170 249 150 115 168 165 140 175 182 192 197 212 183 188 211 236 245 253 261 249 237 230 243 256 258 257 263 265 262 266 266 261 258 259 264 271 278 290 293 295
209 188 183 192 207 149 172 130 163 154 161 168 170 183 201 206 207 218 223 246 249 252 259 256 241 229 249 260 261 258 263 265 262 265 266 261 259 261 267 274 280 288 292 293
256 164 185 104 197 200 196 159 181 172 169 181 196 208 212 214 217 221 240 276 260 267 274 270 246 234 249 261 267 268 265 265 260 260 262 260 259 263 269 275 281 288 290 289
182 132 140 9 351 204 223 214 197 197 206 213 217 222 225 233 235 248 262 265 272 277 269 265 260 246 250 269 270 266 266 265 261 261 263 262 263 267 272 277 282 287 288 285
178 156 167 200 198 178 202 210 210 218 231 236 231 229 238 245 257 259 264 268 274 273 267 257 251 256 263 263 260 262 264 264 260 262 266 266 268 272 276 279 283 283 282 283